Sigfox identifier Datetime Temperature Humidity SNR
00395476 2018-10-09 08:59:02 20.6 43 19
00395476 2018-10-09 07:56:49 20.6 43 18.8
00395476 2018-10-09 06:54:37 20.6 42 19.4
00395476 2018-10-09 05:52:22 20.6 42 19.9
00395476 2018-10-09 04:50:05 20.6 41 20.3
00395476 2018-10-09 01:43:14 20.6 40 21.6
00395476 2018-10-09 00:40:57 20.7 39 21.8
00395476 2018-10-08 23:38:42 20.7 39 21.8
00395476 2018-10-08 22:36:25 20.8 39 21.9
00395476 2018-10-08 21:34:10 20.8 38 22.2
00395476 2018-10-08 20:31:59 20.8 38 22.5
00395476 2018-10-08 19:29:50 20.9 38 22.5
00395476 2018-10-08 18:27:37 21 38 22.9
00395476 2018-10-08 17:25:25 20.9 37 23.4
00395476 2018-10-08 16:23:13 20.9 37 23.6
00395476 2018-10-08 15:21:01 20.8 36 23.9
00395476 2018-10-08 14:18:48 20.8 36 23.9
00395476 2018-10-08 13:16:35 20.7 35 24
00395476 2018-10-08 12:14:20 20.6 34 24.1
00395476 2018-10-08 11:12:06 20.6 33 24.3
00395476 2018-10-08 10:09:52 20.3 33 24.6
00395476 2018-10-08 09:07:41 20.2 28 24.7
00395476 2018-10-08 08:05:28 20.2 28 24.7
00395476 2018-10-08 07:03:16 20.3 34 24.7
00395476 2018-10-08 06:01:01 20.3 35 24.9
00395476 2018-10-08 04:58:47 20.2 35 24.7
00395476 2018-10-08 03:56:33 20.2 35 24.6
00395476 2018-10-08 02:54:20 20.2 36 24.7
00395476 2018-10-08 01:52:08 20.3 36 24.5
00395476 2018-10-08 00:49:58 20.3 37 24.4
00395476 2018-10-07 23:47:40 20.4 37 24.3
00395476 2018-10-07 22:45:22 20.4 37 24.2
00395476 2018-10-07 21:43:09 20.4 38 24.3
00395476 2018-10-07 20:40:58 20.4 38 24.5
00395476 2018-10-07 19:38:41 20.5 38 24.5
00395476 2018-10-07 18:36:28 20.5 38 24.4
00395476 2018-10-07 17:34:15 20.5 38 24.5
00395476 2018-10-07 16:31:59 20.4 38 24.5
00395476 2018-10-07 15:29:43 20.4 38 24.2
00395476 2018-10-07 14:27:28 20.3 39 24.2
00395476 2018-10-07 13:25:13 20.3 39 23.9
00395476 2018-10-07 12:23:00 20.4 39 24
00395476 2018-10-07 11:20:44 20.3 39 24
00395476 2018-10-07 10:18:25 20.4 39 24.4
00395476 2018-10-07 09:16:08 20.4 39 24.3
00395476 2018-10-07 08:13:50 20.3 39 24.2
00395476 2018-10-07 07:11:33 20.4 39 24.2
00395476 2018-10-07 06:09:17 20.4 40 24.2
00395476 2018-10-07 05:07:02 20.4 40 24.3
00395476 2018-10-07 04:04:48 20.4 40 24.4
00395476 2018-10-07 03:02:39 20.4 40 24.6
00395476 2018-10-07 02:00:27 20.4 40 24.7
00395476 2018-10-07 00:58:16 20.4 40 24.8
00395476 2018-10-06 23:56:04 20.4 40 24.7
00395476 2018-10-06 22:53:52 20.4 40 24.9
00395476 2018-10-06 21:51:37 20.4 40 24.9
00395476 2018-10-06 20:49:22 20.4 40 24.8
00395476 2018-10-06 19:47:11 20.5 40 24.7
00395476 2018-10-06 18:44:57 20.6 40 24.6
00395476 2018-10-06 17:42:40 20.6 40 24.5
00395476 2018-10-06 16:40:23 20.4 40 24.5
00395476 2018-10-06 15:38:08 20.6 40 24.5
00395476 2018-10-06 14:35:53 20.5 40 24.4
00395476 2018-10-06 13:33:36 20.4 40 24.4
00395476 2018-10-06 12:31:22 20.5 40 24.4
00395476 2018-10-06 11:29:08 20.4 40 24.7
00395476 2018-10-06 10:26:55 20.4 40 24.7
00395476 2018-10-06 09:24:41 20.4 40 24.9
00395476 2018-10-06 08:22:27 20.4 40 24.5
00395476 2018-10-06 07:20:14 20.4 40 24.7
00395476 2018-10-06 06:18:03 20.4 41 24.6
00395476 2018-10-06 05:15:51 20.4 41 24.8
00395476 2018-10-06 04:13:38 20.4 42 24.9
00395476 2018-10-06 03:11:25 20.4 42 24.8
00395476 2018-10-06 02:09:09 20.5 42 24.6
00395476 2018-10-06 01:06:54 20.6 43 24.2
00395476 2018-10-06 00:04:37 20.6 43 24
00395476 2018-10-05 23:02:20 20.6 43 23.6
00395476 2018-10-05 22:00:03 20.7 44 23.8
00395476 2018-10-05 20:57:45 20.8 45 22.1
00395476 2018-10-05 19:55:27 21 45 22.4
00395476 2018-10-05 18:53:09 21.2 45 22
00395476 2018-10-05 17:50:51 21.5 45 23
00395476 2018-10-05 16:48:30 21.5 54 0